Location: Bruderhein
(53.8035°N, 112.9265°W)
Time: 10:34:53
(UTC+00:00)

STRAND 1 - Pass Details

Date: 04 April 2023
Orbit: 767 x 779 km, 98.4° (Epoch: 29 May)

Event Time Altitude Azimuth Distance (km) Brightness Sun altitude
Rises 05:03:23 0° 5° (N) 3,255 ? -22.7°
Reaches altitude 10° 05:07:41 10° 330° (NNW) 2,321 ? -23.1°
Maximum altitude 05:08:53 11° 317° (NW) 2,263 ? -23.2°
Drops below altitude 10° 05:10:05 10° 303° (WNW) 2,318 ? -23.3°
Sets 05:14:23 0° 268° (W) 3,239 ? -23.7°
